Regional Weather Roundup
Issued by NWS Grand Forks, ND

Home | Current Version | Previous Version | Graphics & Text | Print | Product List | Glossary On
Versions: 1 2 3 4 5 6 7 8 9 10 11 12 13 14 15 16 17 18 19 20 21 22 23 24 25 26 27 28 29 30 31 32 33 34 35 36 37 38 39 40 41 42 43 44 45 46 47 48 49 50
000
ASUS43 KFGF 262110
RWRFGF
PRAIRIE TO PINES  WEATHER ROUNDUP
NATIONAL WEATHER SERVICE EASTERN NORTH DAKOTA/GRAND FORKS ND
300 PM CST MON JAN 26 2015

 **SATELLITE DATA USED TO AUGMENT SKY COVER AT AUTOMATED STATIONS**
 *****  WEATHER ACROSS EASTERN NORTH DAKOTA  *****

CITY           SKY/WX    TMP DP  RH WIND       PRES   REMARKS
GRAND FORKS    CLOUDY    32  26  78 N16       29.89R WCI  21
GRAND FRKS AFB PTSUNNY   35  28  75 N15       29.90R
DEVILS LAKE    SUNNY     37  30  75 NW12      29.89R
FARGO          CLOUDY    38  31  76 N16       29.88R
WAHPETON ARPT  CLOUDY    41  32  70 NW14G20   29.86S
$$

 ***** WEATHER ACROSS CENTRAL AND WESTERN NORTH DAKOTA  *****

CITY           SKY/WX    TMP DP  RH WIND       PRES   REMARKS
BISMARCK       SUNNY     49  31  49 NW8       29.96S
MINOT          SUNNY     45  32  60 NW8       29.93S
JAMESTOWN      SUNNY     41  32  70 NW13      29.90R
MINOT AFB      SUNNY     41  37  83 NW7       29.92F
GARRISON         N/A     47  35  63 NW8       29.94R
WILLISTON      MOSUNNY   50  31  48 SW9       29.93F
DICKINSON      PTSUNNY   51  31  46 W7        29.94F
HETTINGER      PTSUNNY   53  29  39 W8        29.97F
$$

 *****  OTHER AIRPORT OBSERVATIONS IN OUR AREA  *****

CITY           SKY/WX    TMP DP  RH WIND       PRES   REMARKS
WALHALLA         N/A     32  32 100 N14       29.91R WCI  22
GRAFTON AIRPOR NOT AVBL
VALLEY CITY AR FAIR      39  36  87 N16G24    29.89R
CANDO          FAIR      39  30  70 NW12      29.90S
CAVALIER APRT  FAIR      32  27  80 N12       29.91R WCI  23
GWINNER        CLEAR     45  36  70 N17G23    29.90R
SHEYENNE NWR     N/A     43  32  66 N14       29.95
ROLLA          FAIR      37  32  81 NW14      29.88F
 ***** THE ABOVE OBSERVATIONS ARE NON NWS ARE NOT QUALITY
       CONTROLLED AND MAY MIS-REPORT RAIN FOR SNOW...
$$

  *****  WEATHER ACROSS NORTHERN MINNESOTA  *****

CITY           SKY/WX    TMP DP  RH WIND       PRES   REMARKS
FLAG ISLAND    CLOUDY    27  21  80 N15       29.80R WCI  15
WARROAD        CLOUDY    28  25  86 NW13      29.83R WCI  18
ROSEAU         CLOUDY    30  25  80 NW14      29.85R WCI  20
HALLOCK        CLOUDY    28  25  86 NW13      29.89R WCI  18
THF RVR FALLS  CLOUDY    30  25  80 N17       29.86R WCI  18
BAUDETTE       CLOUDY    28  23  81 N10G21    29.79R WCI  19
WASKISH        CLOUDY    32  27  80 NW9G16    29.79R WCI  24
CROOKSTON      CLOUDY    30  27  86 N22       29.89R WCI  17
STEPHEN NDAWN    N/A     28  25  86 N15         N/A  WCI  17
GREENBUSH NDAW   N/A     28  25  86 NW16        N/A  WCI  17
$$
  *****  WEATHER ACROSS CENTRAL AND WEST MINNESOTA  *****

CITY           SKY/WX    TMP DP  RH WIND       PRES   REMARKS
FOSSTON        CLOUDY    30  27  86 NW14      29.84R WCI  20
BEMIDJI        CLOUDY    33  28  81 NW20G25   29.77R WCI  22
PARK RAPIDS    CLOUDY    37  28  70 NW14G23   29.77R
ELBOW LAKE     CLOUDY    37  32  83 NW14      29.84R
WADENA         CLOUDY    36  28  75 NW21G28   29.79R
DETROIT LAKES  CLOUDY    32  30  93 NW23G29   29.84R WCI  19
MOORHEAD       CLOUDY    37  36  93 N16       29.88R
FERGUS FALLS   CLOUDY    37  28  70 N18G26    29.86R
MORRIS MN      CLOUDY    41  34  75 NW20G25   29.83R
STAPLES        CLOUDY    37  28  70 NW23G29   29.77R
$$
  *****  WEATHER ELSEWHERE ACROSS MINNESOTA  *****

CITY           SKY/WX    TMP DP  RH WIND       PRES   REMARKS
DULUTH         LGT SNOW  30  26  85 NW5       29.68R FOG
INTRNTL FALLS  CLOUDY    28  23  81 N13       29.75R WCI  17
ELY            LGT SNOW  25  23  93 CALM      29.69R VSB 3/4
CLOQUET        LGT SNOW  30  30 100 CALM      29.70R
WHEATON        MOSUNNY   41  32  70 NW20G26   29.88R
BRAINERD       CLOUDY    38  29  70 NW18G28   29.75R
HIBBING        CLOUDY    34  28  79 N15       29.70R WCI  24
ALEXANDRIA     CLOUDY    38  30  73 NW15G26   29.81R
SAINT CLOUD    CLOUDY    41  32  70 W15       29.76R
MINNEAPOLIS    PTSUNNY   43  32  65 NW16      29.75R
$$

  *****  WEATHER ACROSS SOUTH DAKOTA  *****

CITY           SKY/WX    TMP DP  RH WIND       PRES   REMARKS
SIOUX FALLS    MOSUNNY   48  37  65 NW14      29.90S
BROOKINGS      NOT AVBL
WATERTOWN      SUNNY     42  34  73 NW18      29.88R
HURON          SUNNY     50  37  61 NW16      29.95R
SISSETON         N/A     44  35  70 N22G29    29.87R
ABERDEEN       SUNNY     47  35  63 NW17G24   29.96R
MITCHELL       SUNNY     53  38  56 NW16      29.96R
PIERRE         SUNNY     56  30  37 NW14      29.97F
MOBRIDGE       SUNNY     53  36  52 NW12      29.94S
RAPID CITY     SUNNY     68  29  23 N16       30.01F
$$

  *****  SOME WEATHER IN NEARBY STATES *****

CITY           SKY/WX    TMP DP  RH WIND       PRES   REMARKS
GLASGOW MT     MOSUNNY   48  36  63 S3        29.91F
GREAT FALLS MT PTSUNNY   66  28  24 SW18      29.96F
CHEYENNE WY    SUNNY     66  20  17 W15G21    30.21F
SCOTTSBLUFF NE SUNNY     65  38  36 W8        30.12F
OMAHA NE       MOSUNNY   58  35  42 N18       29.92R
DES MOINES IA  MOSUNNY   53  36  52 NW22G29   29.84R
DAVENPORT IA   CLOUDY    30  25  81 S9        29.80S WCI  22
CHICAGO IL     LGT SNOW  25  21  85 S7        29.86S FOG     WCI  17
EAU CLAIRE WI  CLOUDY    26  23  88 S5        29.74R WCI  20
LA CROSSE WI   CLOUDY    29  25  85 S6        29.77R WCI  23
$$

  *****  SOME NATIONAL WEATHER *****

CITY           SKY/WX    TMP DP  RH WIND       PRES   REMARKS
LA GUARDIA NY  SNOW      24  22  91 NE15G22   29.85F VSB 1/4 WCI  11
RALEIGH NC     CLOUDY    48  40  73 VRB5      29.60R
ATLANTA GA     CLOUDY    39  30  70 NW21      29.87S
NEW ORLEANS LA MOSUNNY   61  34  36 NW13      30.06F
OKLAHOMA CITY  MOSUNNY   76  31  19 NW15      30.03F
ALBUQUERQUE NM PTSUNNY   52  25  35 S5        30.33F
SALT LAKE CITY SUNNY     49  34  56 NW6       30.26F
LOS ANGELES CA PTSUNNY   74  34  23 SE9       29.97F
BOISE ID       MOSUNNY   41  34  76 NW5       30.24F
SEATTLE WA     MOSUNNY   58  46  64 SW7       29.95F
$$

*** WEATHER ACROSS MANITOBA...SASKATCHEWAN AND ONTARIO ***
                ***ONTARIO***

CITY           SKY/WX    TMP DP  RH WIND       PRES   REMARKS
GERALDTON      LGT SNOW  19  18  93 E6        29.84R VSB 1   WCI  11
THUNDER BAY    LGT SNOW  25  21  86 E8        29.80R WCI  16
SIOUX LOOKOUT  CLOUDY    23  18  80 N5        29.77R WCI  17
TORONTO        PTSUNNY   18   0  45 E13G18    29.96R WCI   4
BIG TROUT LK   CLEAR     12   5  73 SE3       29.83R
PICKLE LAKE    FLURRIES  18  12  79 CALM      29.77R
DRYDEN         CLOUDY    23  21  93 N7        29.77R WCI  15
KENORA         FLURRIES  23  19  86 N9        29.79R WCI  13
$$
                *** MANITOBA***

CITY           SKY/WX    TMP DP  RH WIND       PRES   REMARKS
BRANDON        PTSUNNY   34  30  86 W12       29.90S
DAUPHIN        CLOUDY    28  25  86 E6        29.88S WCI  22
ISLAND LAKE    CLOUDY    12   7  79 W5        29.84R WCI   4
PILOT MOUND      N/A     30  27  86 NW3         N/A
THE PAS        CLOUDY    23  18  80 S7        29.82F WCI  15
THOMPSON       FLURRIES  10   5  79 S6        29.79F WCI   1
WINNIPEG       CLOUDY    27  21  80 NW13      29.91R WCI  16
LYNN LAKE      LGT SNOW  16  16 100 SW7       29.67S VSB 1   WCI   6
CHURCHILL      MOCLDY    -8 -11  84 S12       29.81F WCI -27
GILLAM         CLOUDY     1  -4  78 VRB2      29.83F
$$
                ***SASKATCHEWAN***

CITY           SKY/WX    TMP DP  RH WIND       PRES   REMARKS
ESTEVAN        CLOUDY    43  34  70 NW3       29.92R
KINDERSLEY     MOSUNNY   39  32  75 S3        29.82F
LLOYDMINSTER   MOSUNNY   41  32  70 W10       29.80F
PRINCE ALBERT  PTSUNNY   39  32  75 W7        29.80F
REGINA         NOT AVBL
YORKTON        CLOUDY    36  30  80 SW8       29.86F
N. BATTLEFORD  SUNNY     43  32  65 SW6       29.84F
LA RONGE       PTSUNNY   39  32  75 SW2       29.72F
SASKATOON      MOSUNNY   39  30  70 SW9       29.85F
SWIFT CURRENT  CLOUDY    46  37  71 SW9       29.82F
$$
NOTE: THESE ARE AUTOMATED STATIONS WITH LIMITED QUALITY CONTROL
      "FAIR" INDICATES FEW OR NO CLOUDS BELOW 12,000 FEET WITH NO
      SIGNIFICANT WEATHER AND/OR OBSTRUCTIONS TO VISIBILITY.
      SKY/WX - SKY CONDITION AND SIGNIFICANT WEATHER.
      TMP - AIR TEMPERATURE.    DP   - DEWPOINT TEMPERATURE.
      RH  - RELATIVE HUMIDITY.  PRES - PRESSURE.
      HX  - HEAT INDEX.         WCI  - WIND CHILL INDEX.
$


USA.gov is the U.S. government's official web portal to all federal, state and local government web resources and services.